Location: Crab Orchard
(37.7292°N, 88.8042°W)
Time: 16:33:02
(UTC+00:00)

Cosmos 1340 - Pass Details

Date: 08 December 2019
Orbit: 502 x 506 km, 81.2° (Epoch: 18 January)

Event Time Altitude Azimuth Distance (km) Brightness Sun altitude
Rises 23:06:34 0° 344° (NNW) 2,614 6.2 -6.2°
Reaches altitude 10° 23:08:45 10° 338° (NNW) 1,725 5.3 -6.6°
Maximum altitude 23:12:22 45° 265° (W) 693 3.9 -7.3°
Drops below altitude 10° 23:15:58 10° 192° (SSW) 1,712 5.8 -7.9°
Sets 23:18:08 0° 186° (S) 2,592 6.7 -8.3°
